Home > Weather > Düren > Past weeks

Flag for Germany Weather for the Past 2 Weeks in Düren, North Rhine-Westphalia, Germany

Now
46 °F

Passing clouds.


Feels Like: 40 °F
Forecast: 39 / 48 °F
Wind: 16 mph from Southwest

Location: Noervenich

Current Time: Feb 8, 2016 at 1:09:36 AM

Latest Report: Feb 7, 2016 at 11:20 PM


Visibility: N/A

Pressure: 29.59 "Hg

Humidity: 62%

Dew point: 34 °F

Location of DürenLocation

Historic Weather in Düren — Graph

°F

Düren Temperature Yesterday

Maximum temperature yesterday: 52 °F (at 4:20 AM)
Minimum temperature yesterday: 45 °F (at 6:20 PM)
Average temperature yesterday: 49 °F

High & Low Weather Summary for the Past Weeks

 TemperatureHumidityPressure
High57 °F (Jan 25, 2:20 PM)100% (Jan 24, 5:20 PM)30.57 "Hg (Jan 24, 5:20 PM)
Low34 °F (Jan 29, 1:20 AM)50% (Feb 7, 4:20 PM)29.47 "Hg (Feb 7, 5:20 AM)
Average47 °F78%30.07 "Hg
* Reported Jan 23 11:20 PM — Feb 7 11:20 PM, Düren, Weather by CustomWeather, © 2016

Note: Actual official high and low records may vary slightly from our data, if they occured in-between our weather recording intervals... More about our weather records

Advertising

Düren Weather History for the Previous 24 Hours

 ConditionsComfort  
Time TempWeatherWind HumidityBarometerVisibility
11:20 PM
Sun, Feb 7
46 °FPassing clouds.16 mph62%29.59 "HgN/A
10:20 PM45 °FPassing clouds.10 mph61%29.62 "HgN/A
9:20 PM45 °FPassing clouds.8 mph61%29.65 "HgN/A
8:20 PM45 °FPassing clouds.9 mph61%29.65 "HgN/A
7:20 PM45 °FPassing clouds.8 mph61%29.65 "HgN/A
6:20 PM45 °FPassing clouds.3 mph66%29.65 "HgN/A
5:20 PM48 °FPassing clouds.6 mph54%29.62 "HgN/A
4:20 PM50 °FScattered clouds.10 mph50%29.62 "HgN/A
3:20 PM48 °FBroken clouds.10 mph58%29.62 "HgN/A
2:20 PM50 °FPartly sunny.9 mph54%29.59 "HgN/A
1:20 PM50 °FPartly sunny.8 mph58%29.59 "HgN/A
12:20 PM48 °FPartly sunny.9 mph66%29.56 "HgN/A
11:20 AM46 °FPartly sunny.7 mph71%29.56 "HgN/A
10:20 AM50 °FPartly sunny.8 mph71%29.53 "HgN/A
9:20 AM48 °FBroken clouds.6 mph87%29.50 "HgN/A
8:20 AM52 °FPartly sunny.8 mph67%29.47 "HgN/A
7:20 AM52 °FPassing clouds.8 mph67%29.47 "HgN/A
6:20 AM52 °FLight rain. Passing clouds.7 mph58%29.47 "HgN/A
5:20 AM52 °FPartly cloudy.7 mph58%29.47 "HgN/A
4:20 AM52 °FPassing clouds.7 mph58%29.50 "HgN/A
3:20 AM50 °FPassing clouds.6 mph67%29.50 "HgN/A
2:20 AM50 °FPassing clouds.8 mph67%29.53 "HgN/A
1:20 AM50 °FPassing clouds.7 mph67%29.56 "HgN/A
Weather by CustomWeather, © 2016

See weather overviewHow to use our weather pages